[[{"header":{"parameterUnit":"m.s-1","parameterCategory":1,"la1":30.2991,"la2":30.254,"lo1":-89.0895,"lo2":-89.0444,"dy":0.0017,"dx":0.0017,"nx":28,"ny":28,"refTime":"2024-08-26T09:00:00:Z","depth":0,"parameterNumber":2,"parameterNumberName":"U-component_of_WINDS"},"data":[0,0,0,0,0,0,0,0,0,0,0,0,0,0,0,0,0,0,0,0,0,0,0,0,0,0,0,0,0,0,0,0,0,0,0,0,0,0,0,0,0,0,0,0,0,0,0,0,0,0,0,0,0,0,0,0,0,0,-2.2918,-2.2919,0,-2.3017,-2.3019,-2.302,-2.3027,-2.3026,-2.3025,-2.3024,-2.313,-2.3133,-2.3137,0,0,0,0,0,0,0,0,0,0,0,0,0,-2.274,-2.2743,-2.2918,-2.2919,-2.2921,-2.3017,-2.3019,-2.302,-2.3027,-2.3026,-2.3024,-2.3023,-2.3128,-2.3133,-2.3137,0,0,0,0,0,0,0,0,0,0,0,0,0,-2.2826,-2.2744,-2.2918,-2.2936,-2.2938,-2.3017,-2.3019,-2.302,-2.3027,-2.3026,-2.3024,-2.3023,-2.3127,-2.3132,-2.3138,-2.3207,0,0,-2.3156,-2.3158,0,0,0,0,0,0,0,0,-2.2821,-2.2833,-2.2932,-2.2935,-2.2938,-2.3008,-2.2995,-2.3083,-2.3028,-2.2994,-2.3024,-2.3022,-2.3091,-2.3099,-2.3122,-2.3212,-2.3217,-2.3156,-2.316,-2.3162,-2.3164,0,0,0,0,0,0,0,-2.2815,-2.2828,-2.2957,-2.2933,-2.2937,-2.294,-2.2951,-2.3011,-2.3051,-2.2997,-2.2997,-2.3009,-2.3092,-2.3116,-2.3124,-2.3218,-2.3156,-2.3161,-2.3165,-2.3167,-2.3372,-2.3374,0,0,0,0,0,0,-2.2805,-2.2823,-2.2954,-2.296,-2.2874,-2.2945,-2.2957,-2.2987,-2.305,-2.3058,-2.301,-2.3009,-2.3107,-2.3118,-2.3128,-2.3214,-2.3162,-2.3168,-2.3171,-2.337,-2.3372,-2.3375,0,0,0,0,0,0,-2.2801,-2.2817,-2.295,-2.2892,-2.2909,-2.295,-2.2984,-2.299,-2.3014,-2.306,-2.3067,-2.3027,-2.3106,-2.312,-2.3188,-2.3217,-2.317,-2.3175,-2.3368,-2.3371,-2.3374,-2.3384,0,0,0,0,0,0,-2.2796,-2.2815,-2.284,-2.2893,-2.2912,-2.3006,-2.2986,-2.2993,-2.3024,-2.3023,-2.3078,-2.3086,-2.3106,-2.3179,-2.3193,-2.3224,-2.318,-2.3365,-2.3369,-2.3373,-2.3382,-2.3387,-2.3392,0,0,0,0,0,-2.279,-2.284,-2.2842,-2.2857,-2.2945,-2.3008,-2.302,-2.3041,-2.3026,-2.3052,-2.3082,-2.3084,-2.3212,-2.3186,-2.3202,-2.3235,-2.3363,-2.3368,-2.3372,-2.3379,-2.3386,-2.3392,0,0,0,0,0,0,-2.2792,-2.2847,-2.285,-2.2918,-2.2958,-2.3009,-2.3043,-2.3047,-2.3094,-2.3091,-2.3117,-2.3129,-2.3196,-2.3223,-2.3193,-2.3306,-2.3286,-2.3294,-2.3286,-2.3293,-2.3298,-2.329,-2.3185,0,0,0,0,0,-2.28,-2.2845,-2.2892,-2.2948,-2.2968,-2.3002,-2.3031,-2.3044,-2.3087,-2.3104,-2.3139,-2.3182,-2.3232,-2.3264,-2.3313,-2.3386,-2.3399,-2.3418,-2.3423,-2.3427,-2.3433,-2.3475,-2.3484,-2.3389,-2.3389,-2.3389,0,0,-2.2817,-2.2854,-2.2881,-2.2949,-2.2982,-2.303,-2.3016,-2.3067,-2.3104,-2.3112,-2.3177,-2.3205,-2.3255,-2.3326,-2.3359,-2.335,-2.3463,-2.3433,-2.3436,-2.344,-2.3481,-2.349,-2.3498,-2.3392,-2.3392,-2.3391,0,0,-2.2874,-2.2905,-2.2956,-2.2989,-2.3038,-2.3061,-2.3073,-2.3124,-2.3142,-2.3208,-2.3215,-2.326,-2.3346,-2.3381,-2.341,-2.3483,-2.3486,-2.3498,-2.3526,-2.3566,-2.3574,-2.3581,-2.3607,-2.3616,-2.3504,-2.3505,-2.3505,0,-2.289,-2.296,-2.2981,-2.3032,-2.3063,-2.3073,-2.3125,-2.3156,-2.322,-2.3241,-2.3231,-2.3339,-2.3373,-2.3453,-2.3471,-2.3494,-2.351,-2.3491,-2.3571,-2.3578,-2.3585,-2.361,-2.3619,-2.3506,-2.3505,-2.3505,-2.3505,0,-2.2978,-2.3027,-2.3062,-2.3122,-2.3157,-2.3208,-2.3239,-2.3272,-2.3283,-2.3307,-2.3376,-2.3417,-2.3475,-2.3495,-2.3507,-2.3577,-2.357,-2.3565,-2.3545,-2.3594,-2.3618,-2.3628,-2.3507,-2.3507,-2.3506,-2.3506,0,0,-2.3036,-2.3108,-2.312,-2.3148,-2.3204,-2.3243,-2.3296,-2.3351,-2.338,-2.3424,-2.347,-2.3543,-2.3538,-2.3572,-2.3588,-2.3623,-2.3678,-2.3614,-2.3616,-2.3624,-2.376,-2.3763,-2.3773,-2.3682,-2.3684,-2.3685,-2.3756,0,-2.3099,-2.3191,-2.3212,-2.3292,-2.3339,-2.335,-2.3396,-2.3437,-2.3462,-2.3506,-2.3535,-2.3586,-2.3576,-2.3597,-2.3632,-2.3664,-2.3706,-2.3659,-2.3726,-2.3728,-2.3711,-2.3786,-2.3789,-2.3853,-2.3765,-2.3767,-2.3768,0,-2.3183,-2.3228,-2.3312,-2.3363,-2.3383,-2.3424,-2.3477,-2.3519,-2.3566,-2.3582,-2.362,-2.3633,-2.369,-2.3669,-2.3749,-2.3717,-2.3746,-2.3766,-2.3769,-2.3775,-2.375,-2.3794,-2.3874,-2.3883,-2.3783,-2.3782,-2.3781,0,-2.3217,-2.3299,-2.336,-2.3383,-2.3444,-2.3473,-2.35,-2.3545,-2.3577,-2.3625,-2.3646,-2.37,-2.373,-2.3772,-2.38,-2.3782,-2.3879,-2.3859,-2.3894,-2.3893,-2.3913,-2.3911,-2.3998,-2.3933,-2.3933,-2.3933,-2.3932,0,-2.3284,-2.3335,-2.3376,-2.3413,-2.3471,-2.3497,-2.3555,-2.3582,-2.3623,-2.3667,-2.3681,-2.3723,-2.3757,-2.3804,-2.3827,-2.389,-2.3904,-2.3919,-2.3924,-2.3917,-2.3915,-2.3936,-2.3932,-2.3935,-2.3935,-2.3934,-2.3934,0,-2.3331,-2.336,-2.3427,-2.348,-2.3494,-2.3535,-2.3581,-2.3618,-2.3644,-2.3701,-2.3715,-2.3757,-2.3813,-2.3845,-2.3916,-2.3932,-2.4002,-2.4006,-2.3986,-2.3988,-2.4021,-2.4017,-2.4123,-2.4139,-2.4064,-2.4064,-2.4065,0,-2.3371,-2.341,-2.3467,-2.3497,-2.3524,-2.3572,-2.3605,-2.3633,-2.3667,-2.3724,-2.3756,-2.3813,-2.3859,-2.3949,-2.3987,-2.4042,-2.4047,-2.408,-2.4055,-2.4047,-2.4047,-2.4043,-2.4048,-2.4084,-2.4085,-2.4085,-2.4086,0,-2.3439,-2.3452,-2.3498,-2.355,-2.3588,-2.363,-2.3673,-2.3697,-2.3732,-2.377,-2.3827,-2.3864,-2.3936,-2.3993,-2.4051,-2.4081,-2.409,-2.4094,-2.4105,-2.4097,-2.4084,-2.4091,-2.3997,-2.4091,-2.409,-2.409,-2.409,-2.4089,-2.3484,-2.352,-2.3565,-2.3616,-2.3651,-2.369,-2.3728,-2.3759,-2.3806,-2.3866,-2.3881,-2.3941,-2.3989,-2.4068,-2.41,-2.4149,-2.4143,-2.4159,-2.4163,-2.4166,-2.4167,-2.4077,-2.416,-2.416,-2.416,-2.416,-2.416,0,-2.3553,-2.3582,-2.3629,-2.3687,-2.3728,-2.3732,-2.3779,-2.3813,-2.3866,-2.3909,-2.3955,-2.4021,-2.4077,-2.4119,-2.4176,-2.4207,-2.4213,-2.4222,-2.4219,-2.4226,-2.4169,-2.4153,-2.4216,-2.4216,-2.4216,-2.4216,-2.4216,-2.4216,-2.3593,-2.3653,-2.3672,-2.3751,-2.3781,-2.3839,-2.3865,-2.3903,-2.3937,-2.401,-2.4056,-2.4083,-2.4126,-2.4187,-2.4239,-2.425,-2.4271,-2.4278,-2.429,-2.4236,-2.423,-2.4224,-2.4209,-2.4283,-2.4283,-2.4343,-2.4344,-2.4344]},{"header":{"parameterUnit":"m.s-1","parameterCategory":1,"la1":30.2991,"la2":30.254,"lo1":-89.0895,"lo2":-89.0444,"dy":0.0017,"dx":0.0017,"nx":28,"ny":28,"refTime":"2024-08-26T09:00:00:Z","depth":0,"parameterNumber":3,"parameterNumberName":"V-component_of_WINDS"},"data":[0,0,0,0,0,0,0,0,0,0,0,0,0,0,0,0,0,0,0,0,0,0,0,0,0,0,0,0,0,0,0,0,0,0,0,0,0,0,0,0,0,0,0,0,0,0,0,0,0,0,0,0,0,0,0,0,0,0,3.8028,3.8029,0,3.8094,3.8095,3.8095,3.8155,3.8155,3.8156,3.8157,3.8219,3.822,3.8221,0,0,0,0,0,0,0,0,0,0,0,0,0,3.795,3.7951,3.8028,3.8029,3.803,3.8094,3.8095,3.8096,3.8154,3.8155,3.8156,3.8157,3.8218,3.822,3.8221,0,0,0,0,0,0,0,0,0,0,0,0,0,3.7997,3.7952,3.8028,3.8067,3.8071,3.8094,3.8095,3.8096,3.8154,3.8155,3.8156,3.8157,3.8218,3.8219,3.8221,3.8208,0,0,3.8225,3.8226,0,0,0,0,0,0,0,0,3.7994,3.7999,3.8061,3.8065,3.8069,3.8117,3.809,3.8133,3.8154,3.8123,3.8157,3.8158,3.8184,3.8188,3.8198,3.8211,3.8214,3.8225,3.8226,3.8227,3.8227,0,0,0,0,0,0,0,3.7991,3.7997,3.8054,3.8061,3.8067,3.808,3.8088,3.8098,3.8146,3.8125,3.813,3.8137,3.8186,3.8196,3.82,3.8215,3.8225,3.8227,3.8228,3.8228,3.8221,3.822,0,0,0,0,0,0,3.7982,3.7994,3.8052,3.8056,3.8034,3.8081,3.8089,3.8101,3.8146,3.8154,3.8136,3.814,3.8193,3.8198,3.8202,3.819,3.8227,3.8228,3.8229,3.8222,3.8221,3.822,0,0,0,0,0,0,3.798,3.7987,3.8049,3.8026,3.8035,3.8081,3.8093,3.8101,3.8112,3.8154,3.8163,3.8138,3.8194,3.82,3.8207,3.8193,3.8229,3.823,3.8224,3.8222,3.8221,3.8167,0,0,0,0,0,0,3.7978,3.7986,3.7982,3.8026,3.8036,3.8054,3.8092,3.8102,3.8115,3.812,3.8158,3.8166,3.8196,3.8204,3.8208,3.8196,3.8232,3.8225,3.8223,3.8221,3.817,3.8163,3.8158,0,0,0,0,0,3.7975,3.7963,3.7982,3.7988,3.8033,3.8053,3.8059,3.8095,3.8113,3.8109,3.8137,3.8164,3.8195,3.8204,3.8209,3.8197,3.8226,3.8224,3.8221,3.8172,3.8165,3.8158,0,0,0,0,0,0,3.7915,3.797,3.7991,3.7993,3.8018,3.8063,3.8059,3.8086,3.8105,3.8108,3.8151,3.8159,3.8161,3.818,3.819,3.8188,3.8214,3.8212,3.8175,3.8168,3.8162,3.8157,3.8233,0,0,0,0,0,3.7902,3.7915,3.7962,3.796,3.7971,3.8013,3.8023,3.8049,3.8076,3.8086,3.8114,3.8138,3.8153,3.8162,3.8178,3.8173,3.8182,3.8168,3.8162,3.8157,3.8154,3.8153,3.8147,3.8212,3.8212,3.8212,0,0,3.7875,3.7907,3.7912,3.7948,3.7971,3.7982,3.8021,3.8032,3.804,3.8087,3.8096,3.8117,3.8147,3.8148,3.8149,3.8163,3.8139,3.8154,3.8149,3.815,3.815,3.8144,3.8138,3.8211,3.8211,3.8211,0,0,3.7833,3.7858,3.786,3.7882,3.7916,3.7944,3.7944,3.7986,3.8002,3.8012,3.8048,3.8058,3.8083,3.8102,3.8115,3.8082,3.8107,3.8086,3.8054,3.8052,3.8047,3.8043,3.803,3.8025,3.8083,3.8083,3.8083,0,3.7795,3.7815,3.7856,3.7865,3.7879,3.7925,3.7926,3.7945,3.7981,3.799,3.8006,3.8039,3.8061,3.8068,3.806,3.8069,3.807,3.8081,3.8045,3.8041,3.8037,3.8025,3.802,3.808,3.8081,3.8081,3.8081,0,3.7766,3.7779,3.7776,3.7812,3.7827,3.7831,3.7872,3.7881,3.7906,3.7932,3.7941,3.7971,3.7994,3.7998,3.8021,3.8007,3.8015,3.8037,3.8064,3.8027,3.8017,3.8013,3.8076,3.8077,3.8078,3.8079,0,0,3.7685,3.7747,3.7744,3.7762,3.7804,3.7814,3.782,3.7845,3.7851,3.7875,3.7881,3.7902,3.7923,3.7938,3.7965,3.7963,3.7934,3.7986,3.7987,3.7974,3.7919,3.7901,3.7895,3.7952,3.7951,3.7951,3.7916,0,3.7649,3.7664,3.7702,3.7705,3.7718,3.7762,3.7768,3.7793,3.7818,3.7831,3.7858,3.7872,3.79,3.7909,3.791,3.7937,3.7923,3.794,3.7956,3.7956,3.7946,3.789,3.7871,3.7837,3.7913,3.7912,3.7912,0,3.7607,3.7631,3.7635,3.7678,3.7684,3.7688,3.7714,3.7727,3.7756,3.7775,3.7792,3.7822,3.783,3.7856,3.7867,3.7878,3.7887,3.7901,3.7901,3.7902,3.793,3.7889,3.7827,3.7822,3.7906,3.7906,3.7907,0,3.7547,3.758,3.7587,3.7601,3.765,3.7652,3.7672,3.7703,3.7716,3.7738,3.7746,3.7768,3.778,3.7795,3.783,3.7846,3.7837,3.7866,3.7851,3.785,3.7846,3.7845,3.7783,3.7853,3.7853,3.7853,3.7854,0,3.7501,3.7502,3.7561,3.7565,3.7567,3.7611,3.7611,3.7636,3.7663,3.7672,3.7712,3.7719,3.7765,3.7777,3.7805,3.7809,3.7814,3.7828,3.7835,3.7824,3.7822,3.7829,3.7832,3.7852,3.7853,3.7853,3.7853,0,3.7433,3.7473,3.7484,3.753,3.7542,3.7541,3.7581,3.7586,3.7614,3.7625,3.763,3.7673,3.7689,3.7727,3.7752,3.7771,3.7768,3.7781,3.7758,3.7762,3.7745,3.7746,3.7684,3.7678,3.7753,3.7752,3.7751,0,3.7401,3.7403,3.745,3.746,3.7479,3.7494,3.7508,3.7551,3.7563,3.7598,3.7599,3.7619,3.7637,3.7661,3.7694,3.7714,3.7728,3.7705,3.7731,3.7719,3.7726,3.7725,3.7725,3.7698,3.7697,3.7696,3.7696,0,3.7338,3.7358,3.7377,3.7403,3.7418,3.744,3.7464,3.7469,3.7518,3.753,3.7548,3.7562,3.759,3.7609,3.7634,3.7654,3.7682,3.7688,3.7685,3.7673,3.7659,3.7666,3.7741,3.7689,3.7689,3.769,3.769,3.7691,3.7287,3.7291,3.7325,3.7345,3.7368,3.739,3.7397,3.7427,3.7444,3.7471,3.7495,3.7511,3.7541,3.7578,3.7596,3.7608,3.7623,3.7619,3.7618,3.7616,3.7611,3.7659,3.7613,3.7613,3.7614,3.7614,3.7614,0,3.7226,3.7251,3.7269,3.7302,3.7317,3.7345,3.7373,3.7384,3.7398,3.7424,3.7442,3.7463,3.7482,3.7517,3.7539,3.7542,3.7556,3.7546,3.7546,3.7549,3.7597,3.7597,3.7535,3.7535,3.7535,3.7535,3.7535,3.7535,3.7196,3.7204,3.7228,3.7248,3.7273,3.729,3.7303,3.7323,3.7345,3.7367,3.7384,3.7408,3.7437,3.7462,3.748,3.749,3.7496,3.7482,3.7495,3.7539,3.7546,3.7553,3.7553,3.7483,3.7483,3.7447,3.7446,3.7446]}]]